Simultaneous Nadir Overpasses (SNOs) Predictions

Prediction of SNOs between GOES-16 and FY3D Satellite Orbit:

Table of predicted SNOs for the next 14.0 days since TLE Epoch: 6/22/2019
Index Date Time (GOES-16) GOES-16 Lat,Lon FY3D Lat,Lon Distance(km) Time Diff (sec)
1 06/23/2019 06:34:52 0.00, -75.20 0.20, -76.01 93.01 80
2 06/24/2019 06:13:17 0.01, -75.20 -0.84, -71.44 428.52 80
3 06/25/2019 18:34:59 -0.01, -75.21 -0.32, -76.69 167.96 80
4 06/26/2019 18:18:43 -0.01, -75.22 0.67, -72.11 353.92 80
5 06/28/2019 06:40:15 0.01, -75.23 0.47, -77.32 238.54 80
6 06/29/2019 06:18:41 0.01, -75.24 -0.57, -72.76 283.18 80
7 06/30/2019 18:40:21 0.01, -75.25 -0.63, -77.99 313.31 80
8 07/01/2019 18:24:07 0.01, -75.26 0.41, -73.43 208.68 80
9 07/03/2019 06:45:39 -0.01, -75.27 0.74, -78.64 383.29 80
10 07/04/2019 06:24:05 -0.00, -75.28 -0.30, -74.07 138.88 80
11 07/05/2019 18:45:45 0.00, -75.30 -0.89, -79.31 456.78 80




NCC Satellite Simultaneous Nadir Overpasses (SNOs) Prediction Service
